Погода в Михайло-Коцюбинском

Украина / Черниговская область     51°27′05″N   31°04′40″E
темп.,
°C
ветер,
м/с
пор.,
м/с
влажн.,
%
обл.,
%
осадки,
мм/ч
давл.,
гПа
погр.,
м
8 марта, пн
пн823:00−1зюз7148890 0.0 1008764
02:000з7148893 0.1 1007985
05:00−3з4991100 0.4 1007340
08:00−3зсз5108977 0.4 1008629
11:00−1зсз687319 0.0 10101110
14:000зсз697159 0.1 10101346
17:00−2зсз4892100 0.4 1010430
20:00−4сз41085100 0.7 1013355
9 марта, вт
вт923:00−6сз369284 0.0 1015155
02:00−6сз369371 0.0 1016206
05:00−7ссз479316 0.0 1017258
08:00−8ссз488618 0.0 1020508
11:00−5ссз46740 0.0 1021824
14:00−4ссз357032 0.0 10221053
17:00−5ссз237885 0.0 102264
20:00−7ссв228272 0.0 102421
10 марта, ср
ср1023:00−8юв118359 0.0 102521
02:00−9ююв228459 0.0 102622
05:00−9ююв238697 0.0 102541
08:00−8ююв238598 0.0 1026120
11:00−5ю3481100 0.0 1026306
14:00−3ююв347967 0.0 1025467
17:00−5ююв35890 0.0 1024162
20:00−8ююв33890 0.0 102567
11 марта, чт
чт1123:00−8ююв33850 0.0 102657
02:00−9ююв23827 0.0 102635
05:00−9ююв238262 0.0 102640
08:00−9юв348233 0.0 1026115
11:00−6юв45790 0.0 1025233
14:00−4юв46810 0.0 1024372
17:00−5юв49860 0.0 1023297
20:00−6ююв6138040 0.0 1022331
12 марта, пт
пт1223:00−6ююв61480100 0.0 1020408
02:00−4ююв81676100 0.0 1016660
05:00−3ююв111895100 1.1 1012800
08:00−2ю111895100 2.8 1009910
11:000ю101799100 2.4 1007750
14:00+1ююз611100100 4.3 1006366
17:00+2ююз51098100 0.5 1006276
20:00+1юз5109481 1.0 1007194